Weather History for Fort Campbell, KY

Change the Weather History Date:

Wednesday, May 15, 2013

  Actual Average Record
Temperature  
Mean Temperature 72 °F -  
Max Temperature 83 °F 76 °F 87 °F (1998)
Min Temperature 62 °F 56 °F 44 °F (1997)
Cooling Degree Days 8    
Growing Degree Days 22 (Base 50)    
Moisture  
Dew Point 53 °F    
Average Humidity 51    
Maximum Humidity 79    
Minimum Humidity 27    
Precipitation  
Precipitation 0.00 in - - ()
Sea Level Pressure  
Sea Level Pressure 30.00 in    
Wind  
Wind Speed 12 mph (SW)    
Max Wind Speed 18 mph    
Max Gust Speed 25 mph    
Visibility 8 miles    
Events      
Averages and records for this station are not official NWS values.
T = Trace of Precipitation, MM = Missing Value Source: NWS Daily Summary

Daily Weather History Graph

Daily Weather History Graph

Search for Another Location

Airport:

Trip Planner

Search our weather history database for the weather conditions in past years. The results will help you decide how hot, cold, wet, or windy it might be!

Date:

Astronomy

May. 15, 2013 Rise Set
Actual Time 5:42 AM CDT 7:50 PM CDT
Civil Twilight 5:13 AM CDT 8:19 PM CDT
Nautical Twilight 4:38 AM CDT 8:54 PM CDT
Astronomical Twilight 4:00 AM CDT 9:33 PM CDT
Moon 10:16 AM CDT (5/15) No Moon Set
Length of Visible Light 15h 05m
Length of Day
14h 08m
Waxing Crescent, 27% of the Moon is Illuminated
May 15
Waxing Crescent
May 17
First Quarter
May 24
Full
May 31
Last Quarter
Jun 8
New

Hourly Weather History & Observations

Time (CDT) Temp. Dew Point Humidity Pressure Visibility Wind Dir Wind Speed Gust Speed Precip Events Conditions
12:58 AM 71.8 °F 54.9 °F 55% 29.98 in 10.0 mi SW 15.0 mph - N/A   Clear
1:58 AM 70.0 °F 54.9 °F 59% 29.99 in 10.0 mi SW 12.7 mph - N/A   Clear
2:58 AM 68.5 °F 55.0 °F 62% 30.00 in 10.0 mi SW 11.5 mph - N/A   Clear
3:58 AM 66.4 °F 55.2 °F 67% 30.01 in 10.0 mi SW 11.5 mph - N/A   Clear
4:58 AM 63.1 °F 55.6 °F 76% 30.02 in 10.0 mi SW 9.2 mph - N/A   Clear
5:58 AM 62.1 °F 55.6 °F 79% 30.04 in 10.0 mi SW 9.2 mph - N/A   Clear
6:58 AM 66.6 °F 56.5 °F 70% 30.06 in 10.0 mi SW 10.4 mph - N/A   Clear
7:58 AM 70.7 °F 57.2 °F 62% 30.06 in 10.0 mi WSW 13.8 mph - N/A   Clear
8:58 AM 73.8 °F 57.4 °F 56% 30.07 in 10.0 mi WSW 12.7 mph - N/A   Clear
9:58 AM 75.9 °F 58.6 °F 55% 30.07 in 10.0 mi West 15.0 mph - N/A   Clear
10:58 AM 78.8 °F 58.5 °F 50% 30.06 in 10.0 mi WSW 15.0 mph - N/A   Clear
11:58 AM 81.1 °F 52.9 °F 37% 30.04 in 10.0 mi WSW 18.4 mph 25.3 mph N/A   Clear
12:58 PM 82.4 °F 49.8 °F 32% 30.03 in 10.0 mi SW 18.4 mph - N/A   Clear
1:58 PM 83.3 °F 49.1 °F 30% 30.00 in 10.0 mi SW 16.1 mph 23.0 mph N/A   Clear
2:58 PM 82.9 °F 46.8 °F 28% 29.98 in 10.0 mi WSW 18.4 mph - N/A   Clear
3:58 PM 83.7 °F 46.0 °F 27% 29.96 in 10.0 mi SW 16.1 mph - N/A   Clear
4:58 PM 82.4 °F 45.5 °F 27% 29.96 in 10.0 mi WSW 15.0 mph - N/A   Clear
5:58 PM 78.6 °F 46.9 °F 33% 29.96 in 10.0 mi WSW 9.2 mph - N/A   Clear
6:58 PM 75.2 °F 49.5 °F 40% 29.96 in 10.0 mi SW 8.1 mph - N/A   Clear
7:58 PM 73.6 °F 47.7 °F 40% 29.96 in 4.0 mi South 4.6 mph - N/A   Haze
8:09 PM 73.4 °F 48.2 °F 41% 29.97 in 2.5 mi South 3.5 mph - N/A   Haze
8:11 PM 73.4 °F 48.2 °F 41% 29.97 in 3.0 mi South 3.5 mph - N/A   Haze
8:58 PM 70.9 °F 50.2 °F 48% 29.97 in 6.0 mi South 2.3 mph - N/A   Haze
9:58 PM 68.9 °F 53.4 °F 58% 29.97 in 4.0 mi SSW 5.8 mph - N/A   Haze
10:58 PM 66.2 °F 54.9 °F 67% 29.97 in 5.0 mi SSW 5.8 mph - N/A   Haze
11:17 PM 68.0 °F 55.4 °F 64% 29.98 in 6.0 mi SSW 6.9 mph - N/A   Haze
11:32 PM 68.0 °F 55.4 °F 64% 29.98 in 9.0 mi SSW 8.1 mph - N/A   Clear
11:58 PM 67.1 °F 55.9 °F 67% 29.96 in 4.0 mi SSW 6.9 mph - N/A   Haze